Home > Time Zones > World Clock > Weather > India > Thane > Past weeks

Flag for India Weather past 2 weeks in Thane, Maharashtra, India

Now
81 °F

Partly cloudy.


Feels Like: 88 °F
Forecast: 79 / 85 °F
Wind: 9 mph from Southwest

Location: Bombay / Santacruz

Current Time: Sep 2, 2014 at 10:28:54 PM

Latest Report: Sep 2, 2014 at 9:40 PM


Visibility: 2 mi

Pressure: 29.62 "Hg

Humidity: 94%

Dew point: 79 °F

Location of ThaneLocation

Historic Weather in Thane — Graph

°F

Thane temperature yesterday

Maximum temperature yesterday: 81 °F (at 12:40 AM)
Minimum temperature yesterday: 77 °F (at 5:40 AM)
Average temperature yesterday: 79 °F

Past Weeks' High & Low Weather Summary

 TemperatureHumidityPressure
High90 °F (Aug 23, 1:40 PM)100% (Aug 21, 7:10 AM)29.86 "Hg (Aug 21, 7:10 AM)
Low75 °F (Aug 27, 8:40 AM)70% (Aug 21, 2:10 PM)29.47 "Hg (Sep 1, 4:10 AM)
Average82 °F90%29.68 "Hg
* Reported Aug 18 8:40 PM — Sep 2 9:10 PM, Thane, Weather by CustomWeather, © 2014

Note: Actual official high and low records may vary slightly from our data, if they occured in-between our weather recording intervals... More about our weather records

Advertising

Thane weather history for previous 24 hours

 ConditionsComfort  
Time TempWeatherWind HumidityBarometerVisibility
9:10 PM
Sep 2
81 °FPartly cloudy.12 mph100%29.62 "Hg1 mi
8:40 PM81 °FPartly cloudy.8 mph89%29.62 "Hg1 mi
8:10 PM81 °FPartly cloudy.8 mph89%29.59 "Hg1 mi
7:40 PM81 °FPartly cloudy.12 mph89%29.59 "Hg1 mi
7:10 PM81 °FBroken clouds.12 mph89%29.56 "Hg1 mi
6:40 PM79 °FBroken clouds.12 mph94%29.56 "Hg1 mi
6:10 PM79 °FScattered showers. Broken clouds.12 mph94%29.56 "Hg1 mi
2:40 PM84 °FBroken clouds.10 mph79%29.56 "Hg1 mi
2:10 PM84 °FBroken clouds.16 mph89%29.56 "Hg1 mi
1:40 PM84 °FBroken clouds.13 mph89%29.56 "Hg1 mi
1:10 PM82 °FBroken clouds.13 mph94%29.59 "Hg1 mi
12:40 PM81 °FBroken clouds.12 mph94%29.59 "Hg1 mi
10:40 AM82 °FBroken clouds.9 mph94%29.59 "Hg1 mi
10:10 AM81 °FLight rain. More clouds than sun.12 mph94%29.59 "Hg1 mi
9:40 AM81 °FLight rain. More clouds than sun.12 mph94%29.59 "Hg1 mi
9:10 AM81 °FMore clouds than sun.8 mph94%29.59 "Hg1 mi
7:10 AM77 °FLight rain. More clouds than sun.9 mph100%29.56 "Hg1 mi
5:10 AM77 °FLight rain. Mostly cloudy.7 mph100%29.50 "Hg1 mi
4:40 AM77 °FLight rain. Mostly cloudy.5 mph100%29.50 "Hg1 mi
3:40 AM77 °FLight rain. Mostly cloudy.5 mph100%29.50 "Hg1 mi
3:10 AM77 °FLight rain. Mostly cloudy.9 mph100%29.50 "Hg1 mi
2:40 AM77 °FLight rain. Mostly cloudy.9 mph100%29.50 "Hg1 mi
1:40 AM79 °FLight rain. Mostly cloudy.8 mph94%29.53 "Hg1 mi
1:10 AM77 °FRain. Mostly cloudy.12 mph100%29.53 "Hg1 mi
12:10 AM79 °FPartly cloudy.8 mph94%29.53 "Hg2 mi
11:10 PM
Sep 1
77 °FMostly cloudy.8 mph100%29.56 "Hg1 mi
10:10 PM81 °FPartly cloudy.8 mph89%29.56 "Hg1 mi
Weather by CustomWeather, © 2014

See weather overviewHow to use our weather pages